Big Rapids, MI

2:21 AM EST on February 26, 2017 (GMT -0500)
Roben-Hood

Weather History for KRQB - December, 2012

Change the Weather History Date:

Friday, December 7, 2012

  Actual Average Record
Temperature  
Mean Temperature 40 °F -  
Max Temperature 45 °F 34 °F 48 °F (1980)
Min Temperature 35 °F 20 °F -7 °F (1972)
Degree Days  
Heating Degree Days 26    
Moisture  
Dew Point 33 °F    
Average Humidity 77    
Maximum Humidity 96    
Minimum Humidity 58    
Precipitation  
Precipitation 0.00 in - - ()
Sea Level Pressure  
Sea Level Pressure 29.90 in    
Wind  
Wind Speed 3 mph (NNW)    
Max Wind Speed 7 mph    
Max Gust Speed -    
Visibility 9 miles    
Events      
Averages and records for this station are not official NWS values.
T = Trace of Precipitation, MM = Missing Value Source: NWS Daily Summary

Daily Weather History Graph

Daily Weather History Graph

Search for Another Location

Airport or City:

Trip Planner

Search our weather history database for the weather conditions in past years. The results will help you decide how hot, cold, wet, or windy it might be!

Date:

Astronomy

Dec. 07, 2012 Rise Set
Actual Time 8:02 AM EST 5:04 PM EST
Civil Twilight 7:29 AM EST 5:37 PM EST
Nautical Twilight 6:53 AM EST 6:13 PM EST
Astronomical Twilight 6:19 AM EST 6:48 PM EST
Moon 1:10 AM EST (12/7) 1:11 PM EST (12/7)
Length of Visible Light 10h 07m
Length of Day
9h 02m
Last Quarter, 39% of the Moon is Illuminated
Dec 7
Last Quarter
Dec 13
New
Dec 20
First Quarter
Dec 28
Full
Jan 4
Last Quarter

Hourly Weather History & Observations

Time (EST) Temp. Windchill Dew Point Humidity Pressure Visibility Wind Dir Wind Speed Gust Speed Precip Events Conditions
12:15 AM 38.3 °F 33.9 °F 30.9 °F 75% 29.88 in 10.0 mi SSW 5.8 mph - N/A   Overcast
12:34 AM 38.8 °F 34.6 °F 31.6 °F 75% 29.88 in 10.0 mi SSW 5.8 mph - N/A   Overcast
12:54 AM 39.2 °F 34.2 °F 32.0 °F 75% 29.87 in 10.0 mi SSW 6.9 mph - N/A   Overcast
1:15 AM 39.4 °F 36.1 °F 32.0 °F 75% 29.87 in 10.0 mi SSW 4.6 mph - N/A   Overcast
1:34 AM 39.6 °F 36.3 °F 32.2 °F 75% 29.87 in 10.0 mi SW 4.6 mph - N/A   Overcast
1:55 AM 39.9 °F 36.7 °F 32.9 °F 76% 29.87 in 10.0 mi SW 4.6 mph - N/A   Overcast
2:14 AM 40.3 °F 37.1 °F 33.8 °F 78% 29.87 in 10.0 mi SW 4.6 mph - N/A   Overcast
2:34 AM 40.5 °F 37.3 °F 34.5 °F 79% 29.87 in 10.0 mi SW 4.6 mph - N/A   Overcast
2:55 AM 39.4 °F 36.1 °F 34.2 °F 82% 29.87 in 10.0 mi SW 4.6 mph - N/A   Scattered Clouds
3:14 AM 39.0 °F 34.8 °F 33.8 °F 82% 29.87 in 10.0 mi SSW 5.8 mph - N/A   Clear
3:34 AM 38.7 °F 36.3 °F 33.8 °F 83% 29.87 in 7.0 mi SW 3.5 mph - N/A   Scattered Clouds
3:55 AM 38.3 °F 34.8 °F 35.1 °F 88% 29.87 in 7.0 mi SSW 4.6 mph - N/A   Clear
4:14 AM 36.5 °F 33.9 °F 33.8 °F 90% 29.87 in 5.0 mi SSE 3.5 mph - N/A   Clear
4:34 AM 36.0 °F - 34.3 °F 94% 29.87 in 5.0 mi Calm Calm - N/A   Mostly Cloudy
4:55 AM 35.8 °F 31.9 °F 34.3 °F 94% 29.87 in 5.0 mi South 4.6 mph - N/A   Overcast
5:14 AM 35.8 °F - 34.2 °F 94% 29.88 in 5.0 mi Calm Calm - N/A   Overcast
5:34 AM 36.5 °F 32.7 °F 34.7 °F 93% 29.88 in 7.0 mi SSW 4.6 mph - N/A   Overcast
5:54 AM 36.5 °F - 34.7 °F 93% 29.88 in 5.0 mi Calm Calm - N/A   Overcast
6:14 AM 36.5 °F - 34.7 °F 93% 29.88 in 7.0 mi Calm Calm - N/A   Overcast
6:35 AM 38.5 °F 35.0 °F 36.9 °F 94% 29.89 in 5.0 mi WNW 4.6 mph - N/A   Overcast
6:54 AM 39.2 °F 35.9 °F 36.9 °F 91% 29.89 in 5.0 mi NW 4.6 mph - N/A   Overcast
7:14 AM 38.7 °F - 36.7 °F 93% 29.89 in 5.0 mi Calm Calm - N/A   Overcast
7:35 AM 38.5 °F - 36.5 °F 93% 29.90 in 5.0 mi Calm Calm - N/A   Overcast
7:54 AM 37.6 °F - 36.0 °F 94% 29.90 in 4.0 mi Calm Calm - N/A   Overcast
8:14 AM 36.7 °F - 35.6 °F 96% 29.90 in 2.5 mi Calm Calm - N/A   Overcast
8:34 AM 36.0 °F 33.3 °F 34.7 °F 95% 29.91 in 1.5 mi WNW 3.5 mph - N/A   Overcast
8:54 AM 36.3 °F 32.5 °F 35.2 °F 96% 29.92 in 2.0 mi WNW 4.6 mph - N/A   Overcast
9:15 AM 38.3 °F - 37.2 °F 96% 29.92 in 4.0 mi Calm Calm - N/A   Overcast
9:34 AM 37.8 °F - 36.0 °F 93% 29.92 in 4.0 mi Calm Calm - N/A   Mostly Cloudy
9:55 AM 39.4 °F 37.2 °F 37.2 °F 92% 29.93 in 5.0 mi NNW 3.5 mph - N/A   Mostly Cloudy
10:14 AM 40.1 °F 38.0 °F 36.3 °F 86% 29.93 in 10.0 mi North 3.5 mph - N/A   Overcast
10:35 AM 40.3 °F 38.2 °F 36.1 °F 85% 29.93 in 10.0 mi North 3.5 mph - N/A   Overcast
10:54 AM 40.8 °F 38.8 °F 36.1 °F 83% 29.93 in 10.0 mi NNE 3.5 mph - N/A   Overcast
11:14 AM 41.0 °F - 34.2 °F 77% 29.93 in 10.0 mi Calm Calm - N/A   Mostly Cloudy
11:35 AM 41.9 °F - 34.0 °F 73% 29.93 in 10.0 mi Calm Calm - N/A   Mostly Cloudy
11:54 AM 41.4 °F - 34.0 °F 75% 29.92 in 10.0 mi Calm Calm - N/A   Overcast
12:15 PM 42.1 °F - 33.6 °F 72% 29.91 in 10.0 mi Calm Calm - N/A   Mostly Cloudy
12:34 PM 43.0 °F 41.3 °F 34.0 °F 71% 29.91 in 10.0 mi North 3.5 mph - N/A   Mostly Cloudy
12:55 PM 43.0 °F - 33.3 °F 69% 29.91 in 10.0 mi Calm Calm - N/A   Overcast
1:15 PM 43.5 °F - 32.7 °F 66% 29.91 in 10.0 mi Calm Calm - N/A   Mostly Cloudy
1:34 PM 43.7 °F 40.3 °F 32.0 °F 63% 29.91 in 10.0 mi NNW 5.8 mph - N/A   Scattered Clouds
1:55 PM 44.8 °F 41.6 °F 31.5 °F 60% 29.90 in 10.0 mi North 5.8 mph - N/A   Mostly Cloudy
2:14 PM 44.6 °F 42.2 °F 31.1 °F 59% 29.89 in 10.0 mi NNW 4.6 mph - N/A   Scattered Clouds
2:35 PM 44.1 °F 42.5 °F 30.4 °F 59% 29.89 in 10.0 mi NNW 3.5 mph - N/A   Scattered Clouds
2:54 PM 43.9 °F - 30.2 °F 59% 29.89 in 10.0 mi Calm Calm - N/A   Mostly Cloudy
3:15 PM 44.1 °F - 30.2 °F 58% 29.90 in 10.0 mi Calm Calm - N/A   Mostly Cloudy
3:34 PM 43.9 °F - 30.2 °F 59% 29.89 in 10.0 mi Calm Calm - N/A   Mostly Cloudy
3:54 PM 43.9 °F - 31.1 °F 61% 29.90 in 10.0 mi Calm Calm - N/A   Overcast
4:15 PM 43.9 °F - 31.5 °F 62% 29.91 in 10.0 mi Calm Calm - N/A   Overcast
4:34 PM 43.7 °F - 32.2 °F 64% 29.91 in 10.0 mi Calm Calm - N/A   Overcast
4:55 PM 43.5 °F - 31.3 °F 62% 29.91 in 10.0 mi Calm Calm - N/A   Overcast
5:14 PM 42.1 °F - 31.8 °F 67% 29.91 in 10.0 mi Calm Calm - N/A   Mostly Cloudy
5:34 PM 40.8 °F - 31.3 °F 69% 29.91 in 10.0 mi Calm Calm - N/A   Scattered Clouds
5:55 PM 40.5 °F 38.4 °F 30.2 °F 67% 29.90 in 10.0 mi NE 3.5 mph - N/A   Scattered Clouds
6:14 PM 39.9 °F 37.8 °F 30.2 °F 68% 29.91 in 10.0 mi NE 3.5 mph - N/A   Scattered Clouds
6:34 PM 39.6 °F - 30.4 °F 70% 29.91 in 10.0 mi Calm Calm - N/A   Clear
6:55 PM 39.4 °F - 30.2 °F 70% 29.91 in 10.0 mi Calm Calm - N/A   Clear
7:14 PM 39.2 °F - 30.6 °F 71% 29.91 in 10.0 mi Calm Calm - N/A   Scattered Clouds
7:34 PM 39.2 °F - 30.6 °F 71% 29.92 in 10.0 mi Calm Calm - N/A   Mostly Cloudy
7:55 PM 39.6 °F - 30.2 °F 69% 29.92 in 10.0 mi Calm Calm - N/A   Overcast
8:14 PM 39.2 °F - 30.4 °F 71% 29.91 in 10.0 mi Calm Calm - N/A   Overcast
8:34 PM 39.0 °F 35.7 °F 30.2 °F 71% 29.91 in 10.0 mi NE 4.6 mph - N/A   Overcast
8:55 PM 38.5 °F 34.1 °F 30.2 °F 72% 29.91 in 10.0 mi NE 5.8 mph - N/A   Overcast
9:14 PM 38.3 °F 34.8 °F 30.4 °F 73% 29.91 in 10.0 mi NE 4.6 mph - N/A   Overcast
9:34 PM 38.3 °F 34.8 °F 30.2 °F 73% 29.90 in 10.0 mi ENE 4.6 mph - N/A   Overcast
9:55 PM 38.3 °F 33.9 °F 30.2 °F 73% 29.90 in 10.0 mi NE 5.8 mph - N/A   Overcast
10:14 PM 38.1 °F 34.6 °F 30.6 °F 74% 29.90 in 10.0 mi NE 4.6 mph - N/A   Overcast
10:34 PM 37.9 °F 35.5 °F 30.7 °F 75% 29.91 in 10.0 mi NNE 3.5 mph - N/A   Overcast
10:55 PM 37.9 °F 34.4 °F 30.7 °F 75% 29.91 in 10.0 mi NE 4.6 mph - N/A   Overcast
11:14 PM 37.9 °F 34.4 °F 30.9 °F 76% 29.91 in 10.0 mi NNE 4.6 mph - N/A   Overcast
11:34 PM 37.9 °F 34.4 °F 30.9 °F 76% 29.91 in 10.0 mi NNE 4.6 mph - N/A   Overcast
11:55 PM 37.8 °F 35.3 °F 30.7 °F 76% 29.91 in 10.0 mi NNE 3.5 mph - N/A   Overcast